STARLINK-1337, 45582

Orbit data source: Space-Track

STARLINK-1337, 45582 is a payload satellite owned by SpaceX/Seattle (US) in LEO that was launched on Wed, 22 Apr 2020 UTC via an FALCON 9 launch vehicle from the Air Force Eastern Test Range (AFETR). Payload-class satellites include a variety of spacecraft equipped with specific instruments for various scientific and technological missions. These include communications satellites like Starlink; space stations such as the ISS; scientific satellites like the Hubble; Earth observation satellites from companies like Planet Labs, Umbra, and HawkEye 360; GPS; miniature CubeSats for education and research; and military/defense satellites.

Loading next visibility...
Identifier
45582, 2020-025BD
Orbit
LEO
Country
Flag of USUS
Related business
Manufacturer
SpaceX/Seattle
Mission
Partially operational Commercial Communications
Bus & Motor
STARLINK, Unknown motor
Mass
260 kg wet, ~248 kg dry
Launch date (UTC)
2020-04-22 (6 years ago)
Launch vehicle
FALCON 9
Launch site
Air Force Eastern Test Range (AFETR)
Object type
Payload
Rocket body
Debris
Shape & HBR
Box + 1 Pan, 10.1 m
Radar Cross Section
13.562 m², Large (>1 m²)

Expand to show TLE details & history
Last TLE update: 11 hours ago

TLE from 11 hours ago
0 STARLINK-1337
1 45582U 20025BD  26123.59178159  .00118083  00000-0  98011-3 0  9995
2 45582  53.0465 152.9125 0007674 356.4994   3.5967 15.69316453334304
Epoch: 2026-05-03T14:12Z
TLE epoch observation values (Epoch: 2026-05-03T14:12:09.929Z)
Latitude
-0.00004°
Longitude
78.37797°
Altitude
356.594 km
Speed
7.699 km/s
True Right ascension
10h 11m 38s
True Declination
0° 00' 00"
Sunlit
Object was in full shadow at epoch
Visualization orbit readout
Latitude
Unknown
Longitude
Unknown
Altitude
Unknown
Speed
Unknown
Apparent Right ascension
Unknown
Apparent Declination
Unknown
Sunlit
N/A
Visualization observer readout
Local Sidereal Time
09:13:25
Azimuth
Unknown
Elevation
Unknown
Doppler factor
Unknown
Orbital elements
Apogee altitude
366.304 km
Perigee altitude
355.961 km
Semi-major axis
6,739.269 km
Eccentricity
0.00077
Inclination
53.0465°
RAAN
152.9125°
Arg. of periapsis
356.4994°
True anomaly
3.60222°
Mean anomaly
3.5967°
Eccentric anomaly
3.59946°
Mean motion
3.92305 °/min
Orbital period
91.77 mins
BSTAR
0.00098011
Loading maneuver chart data...
Computing Atmospheric mass density...
Loading historical data...
Loading historical data...
Loading historical data...
Loading historical data...
Loading historical data...
Loading historical data...
Loading historical data...

Documentation

Showing up to 5 results
|